Regional Weather Roundup
Issued by NWS Charleston, WV

Home | Current Version | Previous Version | Graphics & Text | Print | Product List | Glossary Off
Versions: 1 2 3 4 5 6 7 8 9 10 11 12 13 14 15 16 17 18 19 20 21 22 23 24 25 26 27 28 29 30 31 32 33 34 35 36 37 38 39 40 41 42 43 44 45 46 47 48 49 50

000
ASUS41 KRLX 280110
RWRRLX
West Virginia Regional Weather Roundup
National Weather Service Charleston WV
900 PM EDT MON APR 27 2015

Note: "fair" indicates few or no clouds below 12,000 feet with no
significant weather and/or obstructions to visibility.

WVZ003-280200-
Northern Panhandle of West Virginia

CITY           SKY/WX    TMP DP  RH WIND       PRES   REMARKS
WHEELING       CLOUDY    42  32  67 NW8       30.00R
$$

WVZ009-280200-
Northwest West Virginia

CITY           SKY/WX    TMP DP  RH WIND       PRES   REMARKS
PARKERSBURG    CLOUDY    47  34  60 N5        30.04R
$$

WVZ006-280200-
Western West Virginia

CITY           SKY/WX    TMP DP  RH WIND       PRES   REMARKS
HUNTINGTON     MOCLDY    53  35  50 N5        29.97R
$$

WVZ015-280200-
West Central West Virginia

CITY           SKY/WX    TMP DP  RH WIND       PRES   REMARKS
CHARLESTON     MOCLDY    52  34  50 N9        29.97R
$$

WVZ022-031-280200-
North Central West Virginia

CITY           SKY/WX    TMP DP  RH WIND       PRES   REMARKS
CLARKSBURG     CLOUDY    45  34  65 N10       29.98R
MORGANTOWN     CLOUDY    45  30  55 N6        29.99R
$$

WVZ025-035-042-045-280200-
Southern West Virginia

CITY           SKY/WX    TMP DP  RH WIND       PRES   REMARKS
BECKLEY        CLOUDY    48  31  51 N8        29.94R
LOGAN          CLOUDY    54  32  43 VRB7      29.92R
BLUEFIELD      CLOUDY    50  28  42 NW7       29.94R
LEWISBURG      CLOUDY    48  31  52 N5        29.94R
$$

WVZ047-280200-
Northern Mountains of West Virginia

CITY           SKY/WX    TMP DP  RH WIND       PRES   REMARKS
ELKINS         CLOUDY    44  31  60 NW13G20   29.96R
$$

WVZ052-280200-
Eastern Panhandle of West Virginia

CITY           SKY/WX    TMP DP  RH WIND       PRES   REMARKS
MARTINSBURG    PTCLDY    50  35  56 NW12      29.90R
PETERSBURG     MOCLDY    47  31  53 NW6       29.95R
$$


USA.gov is the U.S. government's official web portal to all federal, state and local government web resources and services.